CW3077 Weather Reports


Display with metric or nautical units.
time (UTC)temp
F
wind
direction
speed
MPH
gust
MPH
rain 1hr
in
rain 24hr
in
rain mn
in
humidity
%
barometer
mb
20260906161518 86 158 1.0 4.0 0.00 0.00 0.00 70 1016.6
20260906161017 86 135 1.0 3.0 0.00 0.00 0.00 70 1016.5
20260906160516 85 158 2.0 6.0 0.00 0.00 0.00 71 1016.5
20260906160016 85 158 1.0 3.0 0.00 0.00 0.00 71 1016.5
20260906155517 85 158 2.0 6.0 0.00 0.00 0.00 72 1016.4
20260906155016 85 158 2.0 6.0 0.00 0.00 0.00 72 1016.3
20260906154557 85 158 2.0 6.0 0.00 0.00 0.00 73 1016.2
20260906154017 84 158 2.0 7.0 0.00 0.00 0.00 73 1016.2
20260906153537 84 158 3.0 6.0 0.00 0.00 0.00 74 1016.2
20260906153017 84 158 2.0 6.0 0.00 0.00 0.00 75 1016.1
20260906152516 84 203 2.0 6.0 0.00 0.00 0.00 74 1016.1
20260906152016 84 180 2.0 5.0 0.00 0.00 0.00 74 1015.9
20260906151537 84 158 1.0 4.0 0.00 0.00 0.00 75 1015.8
20260906151016 83 158 2.0 6.0 0.00 0.00 0.00 75 1015.9
20260906150517 83 135 2.0 5.0 0.00 0.00 0.00 75 1015.9
20260906150016 83 135 2.0 5.0 0.00 0.00 0.00 75 1015.9
20260906145516 83 113 1.0 3.0 0.00 0.00 0.00 75 1015.8
20260906145017 83 0.0 3.0 0.00 0.00 0.00 76 1015.8
20260906144516 83 113 2.0 6.0 0.00 0.00 0.00 76 1015.8
20260906144016 83 135 2.0 5.0 0.00 0.00 0.00 76 1015.8
20260906143536 83 135 2.0 5.0 0.00 0.00 0.00 76 1015.9
20260906143016 82 113 2.0 5.0 0.00 0.00 0.00 76 1015.8
20260906142537 82 135 2.0 5.0 0.00 0.00 0.00 76 1015.8
20260906142037 82 135 2.0 4.0 0.00 0.00 0.00 76 1015.8
20260906141537 82 135 2.0 5.0 0.00 0.00 0.00 77 1015.8
20260906141036 82 0.0 3.0 0.00 0.00 0.00 77 1015.8
20260906140516 82 0.0 1.0 0.00 0.00 0.00 76 1015.7
20260906140016 81 0.0 3.0 0.00 0.00 0.00 77 1015.7
20260906135516 81 0.0 4.0 0.00 0.00 0.00 77 1015.7
20260906135016 81 225 1.0 4.0 0.00 0.00 0.00 77 1015.7
20260906134536 81 225 2.0 4.0 0.00 0.00 0.00 78 1015.7
20260906134017 81 0.0 2.0 0.00 0.00 0.00 78 1015.7
20260906133517 81 225 2.0 4.0 0.00 0.00 0.00 79 1015.6
20260906133016 80 0.0 4.0 0.00 0.00 0.00 79 1015.6
20260906132516 80 225 1.0 4.0 0.00 0.00 0.00 80 1015.5
20260906132016 80 0.0 2.0 0.00 0.00 0.00 81 1015.4
20260906131516 80 225 1.0 5.0 0.00 0.00 0.00 81 1015.4
20260906131018 79 0.0 0.0 0.00 0.00 0.00 81 1015.2
20260906130536 79 225 1.0 2.0 0.00 0.00 0.00 82 1015.1
20260906130016 79 0.0 1.0 0.00 0.00 0.00 82 1015.1
20260906125518 79 0.0 0.0 0.00 0.00 0.00 82 1015.1
20260906125016 79 0.0 0.0 0.00 0.00 0.00 82 1015.0
20260906124516 78 0.0 0.0 0.00 0.00 0.00 82 1014.8
20260906124036 78 0.0 0.0 0.00 0.00 0.00 82 1014.8
20260906123517 78 0.0 0.0 0.00 0.00 0.00 82 1014.7
20260906123016 78 0.0 0.0 0.00 0.00 0.00 82 1014.5
20260906122536 78 0.0 0.0 0.00 0.00 0.00 81 1014.4
20260906122016 78 0.0 0.0 0.00 0.00 0.00 81 1014.4
20260906121516 78 0.0 0.0 0.00 0.00 0.00 81 1014.2
20260906121016 78 0.0 0.0 0.00 0.00 0.00 81 1014.2
20260906120516 78 0.0 0.0 0.00 0.00 0.00 81 1014.1
20260906120016 78 0.0 0.0 0.00 0.00 0.00 80 1014.1
20260906115516 78 0.0 0.0 0.00 0.00 0.00 80 1014.1
20260906115036 79 0.0 0.0 0.00 0.00 0.00 80 1013.9
20260906114536 79 0.0 0.0 0.00 0.00 0.00 80 1013.9
20260906114016 79 0.0 0.0 0.00 0.00 0.00 80 1013.8
20260906113516 79 0.0 0.0 0.00 0.00 0.00 79 1013.7
20260906113016 79 0.0 0.0 0.00 0.00 0.00 79 1013.7
20260906112516 79 0.0 0.0 0.00 0.00 0.00 78 1013.6
20260906112036 79 0.0 0.0 0.00 0.00 0.00 78 1013.5
20260906111518 79 0.0 0.0 0.00 0.00 0.00 78 1013.6
20260906111016 80 0.0 0.0 0.00 0.00 0.00 78 1013.6
20260906110516 80 0.0 0.0 0.00 0.00 0.00 77 1013.7
20260906110016 80 0.0 0.0 0.00 0.00 0.00 77 1013.7
20260906105516 80 0.0 0.0 0.00 0.00 0.00 77 1013.6
20260906105016 80 0.0 0.0 0.00 0.00 0.00 77 1013.6
20260906104536 80 0.0 2.0 0.00 0.00 0.00 77 1013.5
20260906104016 80 0.0 2.0 0.00 0.00 0.00 77 1013.7
20260906103536 80 0.0 0.0 0.00 0.00 0.00 76 1013.6
20260906103016 80 0.0 2.0 0.00 0.00 0.00 76 1013.5
20260906102516 81 0.0 0.0 0.00 0.00 0.00 76 1013.4
20260906102016 81 0.0 1.0 0.00 0.00 0.00 76 1013.4
20260906101516 81 0.0 0.0 0.00 0.00 0.00 76 1013.4
20260906101036 81 225 1.0 4.0 0.00 0.00 0.00 76 1013.3
20260906100517 81 225 1.0 4.0 0.00 0.00 0.00 76 1013.4
20260906100056 81 225 1.0 5.0 0.00 0.00 0.00 76 1013.4
20260906095516 81 0.0 4.0 0.00 0.00 0.00 75 1013.5
20260906095016 81 225 1.0 6.0 0.00 0.00 0.00 75 1013.3
20260906094516 81 0.0 2.0 0.00 0.00 0.00 75 1013.4
20260906094016 81 225 2.0 5.0 0.00 0.00 0.00 75 1013.3
20260906093536 81 225 1.0 3.0 0.00 0.00 0.00 75 1013.4
20260906093016 81 225 1.0 5.0 0.00 0.00 0.00 75 1013.4
20260906092516 81 225 1.0 5.0 0.00 0.00 0.00 75 1013.4
20260906092016 81 225 1.0 4.0 0.00 0.00 0.00 75 1013.4
20260906091516 81 225 2.0 7.0 0.00 0.00 0.00 75 1013.3
20260906091036 81 248 2.0 6.0 0.00 0.00 0.00 74 1013.3
20260906090516 81 225 1.0 8.0 0.00 0.00 0.00 75 1013.3
20260906090056 81 203 1.0 6.0 0.00 0.00 0.00 75 1013.2
20260906085536 81 225 1.0 5.0 0.00 0.00 0.00 75 1013.4
20260906085036 81 203 2.0 6.0 0.00 0.00 0.00 76 1013.4
20260906084516 82 225 2.0 5.0 0.00 0.00 0.00 75 1013.5
20260906084015 82 225 2.0 5.0 0.00 0.00 0.00 74 1013.5
20260906083516 82 225 2.0 6.0 0.00 0.00 0.00 74 1013.4
20260906083016 82 225 1.0 5.0 0.00 0.00 0.00 74 1013.5
20260906082516 82 225 2.0 4.0 0.00 0.00 0.00 74 1013.4
20260906082016 82 203 1.0 4.0 0.00 0.00 0.00 74 1013.4
20260906081516 82 203 2.0 5.0 0.00 0.00 0.00 74 1013.4
20260906081016 83 203 2.0 9.0 0.00 0.00 0.00 73 1013.5
20260906080516 83 203 2.0 4.0 0.00 0.00 0.00 72 1013.6
20260906080036 83 225 2.0 7.0 0.00 0.00 0.00 72 1013.7
20260906075516 83 203 2.0 5.0 0.00 0.00 0.00 72 1013.7
20260906075016 83 225 2.0 5.0 0.00 0.00 0.00 72 1013.8
20260906074515 83 225 1.0 6.0 0.00 0.00 0.00 72 1013.8
20260906074015 83 225 2.0 9.0 0.00 0.00 0.00 71 1013.9
20260906073516 83 203 2.0 5.0 0.00 0.00 0.00 72 1014.0
20260906073035 83 203 2.0 4.0 0.00 0.00 0.00 71 1013.9
20260906072516 83 225 2.0 6.0 0.00 0.00 0.00 72 1013.9
20260906072016 83 203 2.0 7.0 0.00 0.00 0.00 71 1014.1
20260906071516 84 203 2.0 6.0 0.00 0.00 0.00 71 1014.0
20260906071016 84 203 3.0 7.0 0.00 0.00 0.00 72 1014.3
20260906070515 84 225 3.0 8.0 0.00 0.00 0.00 72 1014.3
20260906070017 84 203 3.0 7.0 0.00 0.00 0.00 72 1014.4
20260906065515 84 225 3.0 9.0 0.00 0.00 0.00 71 1014.3
20260906065016 84 203 3.0 11.0 0.00 0.00 0.00 71 1014.3
20260906064515 84 180 5.0 11.0 0.00 0.00 0.00 72 1014.3
20260906064016 84 180 3.0 9.0 0.00 0.00 0.00 71 1014.4
20260906063516 84 180 2.0 4.0 0.00 0.00 0.00 71 1014.5
20260906063016 84 180 2.0 9.0 0.00 0.00 0.00 71 1014.5
20260906062536 84 158 2.0 9.0 0.00 0.00 0.00 71 1014.5
20260906062015 84 180 2.0 4.0 0.00 0.00 0.00 71 1014.5
20260906061516 84 158 1.0 7.0 0.00 0.00 0.00 70 1014.6
20260906061015 84 180 2.0 7.0 0.00 0.00 0.00 71 1014.5
20260906060515 84 180 2.0 7.0 0.00 0.00 0.00 70 1014.4
20260906060015 84 180 1.0 5.0 0.00 0.00 0.00 70 1014.6
20260906055515 84 180 1.0 5.0 0.00 0.00 0.00 71 1014.8
20260906055015 84 180 1.0 7.0 0.00 0.00 0.00 70 1014.8
20260906054517 84 180 1.0 4.0 0.00 0.00 0.00 70 1014.7
20260906054015 84 158 1.0 3.0 0.00 0.00 0.00 70 1014.5
20260906053535 84 0.0 2.0 0.00 0.00 0.00 70 1014.4
20260906053015 84 158 2.0 7.0 0.00 0.00 0.00 70 1014.4
20260906052515 84 158 2.0 4.0 0.00 0.00 0.00 70 1014.6
20260906052015 84 158 1.0 3.0 0.00 0.00 0.00 70 1014.7
20260906051515 84 158 1.0 4.0 0.00 0.00 0.00 71 1014.6
20260906051015 84 158 3.0 6.0 0.00 0.00 0.00 70 1014.6
20260906050516 84 135 2.0 6.0 0.00 0.00 0.00 69 1014.7
20260906050015 84 158 3.0 8.0 0.00 0.00 0.00 69 1014.8
20260906045516 84 158 3.0 7.0 0.00 0.00 0.00 69 1014.7
20260906045016 84 158 2.0 7.0 0.00 0.00 0.00 69 1014.9
20260906044516 84 135 2.0 8.0 0.00 0.00 0.00 69 1014.7
20260906044016 84 158 2.0 4.0 0.00 0.00 0.00 68 1014.7
20260906043536 84 158 3.0 7.0 0.00 0.00 0.00 68 1014.7
20260906043016 84 135 3.0 7.0 0.00 0.00 0.00 68 1014.7
20260906042536 84 135 3.0 5.0 0.00 0.00 0.00 68 1014.7
20260906042016 84 158 3.0 8.0 0.00 0.00 0.00 68 1014.6
20260906041536 84 158 5.0 11.0 0.00 0.00 0.00 68 1014.5
20260906041016 84 135 4.0 10.0 0.00 0.00 0.00 67 1014.4
20260906040516 85 135 3.0 9.0 0.00 0.00 0.00 67 1014.4
20260906040016 85 180 3.0 9.0 0.00 0.00 0.00 66 1014.5
20260906035518 85 158 4.0 9.0 0.00 0.00 0.00 65 1014.4
20260906035016 85 135 3.0 7.0 0.00 0.00 0.00 65 1014.5
20260906034536 85 135 3.0 8.0 0.00 0.00 0.00 64 1014.5
20260906034036 86 113 4.0 10.0 0.00 0.00 0.00 64 1014.5
20260906033516 86 113 5.0 12.0 0.00 0.00 0.00 63 1014.5
20260906033016 86 113 4.0 9.0 0.00 0.00 0.00 63 1014.6
20260906032516 86 90 4.0 8.0 0.00 0.00 0.00 62 1014.5
20260906032016 87 90 4.0 10.0 0.00 0.00 0.00 61 1014.2
20260906031516 87 90 7.0 11.0 0.00 0.00 0.00 61 1014.2
20260906031016 87 90 5.0 15.0 0.00 0.00 0.00 61 1014.3
20260906030516 87 90 5.0 12.0 0.00 0.00 0.00 60 1014.2
20260906030016 88 90 5.0 12.0 0.00 0.00 0.00 60 1014.1
20260906025516 88 90 8.0 18.0 0.00 0.00 0.00 59 1013.9
20260906025016 88 90 4.0 9.0 0.00 0.00 0.00 58 1013.8
20260906024516 88 90 4.0 8.0 0.00 0.00 0.00 58 1013.7
20260906024016 88 90 5.0 10.0 0.00 0.00 0.00 57 1013.6
20260906023516 88 90 5.0 11.0 0.00 0.00 0.00 57 1013.6
20260906023036 89 90 6.0 10.0 0.00 0.00 0.00 56 1013.3
20260906022516 89 90 5.0 11.0 0.00 0.00 0.00 56 1013.3
20260906022016 89 90 6.0 12.0 0.00 0.00 0.00 55 1013.2
20260906021516 89 90 5.0 12.0 0.00 0.00 0.00 54 1013.1
20260906021016 89 90 5.0 10.0 0.00 0.00 0.00 54 1013.0
20260906020516 89 90 6.0 13.0 0.00 0.00 0.00 53 1012.9
20260906020056 90 90 5.0 10.0 0.00 0.00 0.00 53 1012.8
20260906015516 90 90 4.0 11.0 0.00 0.00 0.00 53 1012.5
20260906015016 90 90 5.0 11.0 0.00 0.00 0.00 53 1012.6
20260906014516 90 90 6.0 16.0 0.00 0.00 0.00 53 1012.7
20260906014015 91 90 6.0 13.0 0.00 0.00 0.00 52 1012.6
20260906013516 91 90 6.0 15.0 0.00 0.00 0.00 52 1012.7
20260906013016 91 90 8.0 17.0 0.00 0.00 0.00 52 1012.6
20260906012516 91 90 8.0 16.0 0.00 0.00 0.00 51 1012.4
20260906012036 92 90 8.0 16.0 0.00 0.00 0.00 51 1012.4
20260906011536 92 90 8.0 15.0 0.00 0.00 0.00 50 1012.3
20260906011015 92 90 11.0 18.0 0.00 0.00 0.00 50 1012.2
20260906010556 93 90 8.0 18.0 0.00 0.00 0.00 49 1012.3
20260906010016 93 90 8.0 20.0 0.00 0.00 0.00 49 1012.3
20260906005515 93 90 5.0 15.0 0.00 0.00 0.00 49 1012.2
20260906005018 94 90 7.0 15.0 0.00 0.00 0.00 48 1012.2
20260906004515 94 90 5.0 11.0 0.00 0.00 0.00 48 1012.2
20260906004015 94 113 5.0 11.0 0.00 0.00 0.00 46 1012.2
20260906003515 94 135 5.0 10.0 0.00 0.00 0.00 46 1012.2
20260906003016 95 113 4.0 11.0 0.00 0.00 0.00 46 1012.1
20260906002516 95 135 4.0 9.0 0.00 0.00 0.00 45 1012.2
20260906002016 95 113 4.0 13.0 0.00 0.00 0.00 45 1012.1
20260906001515 95 135 6.0 13.0 0.00 0.00 0.00 45 1012.0
20260906001056 96 135 4.0 10.0 0.00 0.00 0.00 44 1012.1
20260906000516 96 90 6.0 13.0 0.00 0.00 0.00 44 1012.1
20260906000015 96 90 5.0 13.0 0.00 0.00 0.00 44 1012.1
20260905235515 96 68 7.0 12.0 0.00 0.00 0.00 44 1012.0
20260905235035 96 113 6.0 11.0 0.00 0.00 0.00 44 1011.9
20260905234515 96 113 4.0 9.0 0.00 0.00 0.00 43 1012.0
20260905234016 96 113 4.0 11.0 0.00 0.00 0.00 42 1011.9
20260905233515 96 158 1.0 4.0 0.00 0.00 0.00 43 1011.9
20260905233015 96 135 2.0 7.0 0.00 0.00 0.00 41 1011.9
20260905232555 97 113 4.0 10.0 0.00 0.00 0.00 41 1012.0
20260905232015 96 45 3.0 8.0 0.00 0.00 0.00 41 1011.9
20260905231515 96 45 4.0 10.0 0.00 0.00 0.00 40 1011.9
20260905231036 97 135 3.0 8.0 0.00 0.00 0.00 41 1011.9
20260905230515 97 90 6.0 12.0 0.00 0.00 0.00 40 1012.1
20260905230015 97 113 4.0 8.0 0.00 0.00 0.00 40 1012.0
20260905225535 97 90 3.0 8.0 0.00 0.00 0.00 41 1012.1
20260905225015 97 158 2.0 6.0 0.00 0.00 0.00 41 1012.1
20260905224515 97 135 3.0 8.0 0.00 0.00 0.00 40 1012.0
20260905224015 98 113 5.0 13.0 0.00 0.00 0.00 40 1012.0
20260905223515 98 68 5.0 9.0 0.00 0.00 0.00 40 1012.1
20260905223015 98 113 5.0 12.0 0.00 0.00 0.00 39 1012.1
20260905222515 98 135 2.0 6.0 0.00 0.00 0.00 40 1012.0
20260905222015 98 135 3.0 8.0 0.00 0.00 0.00 40 1012.2
20260905221515 99 158 4.0 9.0 0.00 0.00 0.00 39 1012.2
20260905221015 98 135 1.0 4.0 0.00 0.00 0.00 40 1012.2
20260905220515 99 135 2.0 10.0 0.00 0.00 0.00 39 1012.3
20260905220015 98 203 1.0 3.0 0.00 0.00 0.00 40 1012.3
20260905215515 98 203 2.0 5.0 0.00 0.00 0.00 39 1012.2
20260905215015 98 23 2.0 5.0 0.00 0.00 0.00 40 1012.3
20260905214517 98 23 3.0 8.0 0.00 0.00 0.00 38 1012.3
20260905214015 98 45 4.0 8.0 0.00 0.00 0.00 38 1012.2
20260905213515 98 135 3.0 10.0 0.00 0.00 0.00 39 1012.3
20260905213016 98 135 2.0 5.0 0.00 0.00 0.00 39 1012.5
20260905212555 97 90 1.0 3.0 0.00 0.00 0.00 41 1012.4
20260905212017 98 90 2.0 5.0 0.00 0.00 0.00 40 1012.5
20260905211535 97 135 3.0 8.0 0.00 0.00 0.00 41 1012.6
20260905211015 98 90 3.0 9.0 0.00 0.00 0.00 41 1012.7
20260905210516 98 90 5.0 9.0 0.00 0.00 0.00 40 1012.7
20260905210015 97 135 3.0 8.0 0.00 0.00 0.00 42 1012.7
20260905205515 98 113 3.0 8.0 0.00 0.00 0.00 41 1012.8
20260905205015 99 113 2.0 5.0 0.00 0.00 0.00 39 1012.9
20260905204515 99 90 4.0 9.0 0.00 0.00 0.00 40 1013.0
20260905204015 101 135 3.0 8.0 0.00 0.00 0.00 38 1013.1
20260905203515 99 248 1.0 3.0 0.00 0.00 0.00 41 1013.2
20260905203015 99 248 2.0 7.0 0.00 0.00 0.00 41 1013.3
20260905202515 99 180 2.0 6.0 0.00 0.00 0.00 39 1013.4
20260905202015 99 225 3.0 10.0 0.00 0.00 0.00 40 1013.3
20260905201515 99 203 4.0 9.0 0.00 0.00 0.00 40 1013.4
20260905201015 99 203 2.0 8.0 0.00 0.00 0.00 41 1013.5
20260905200515 100 68 4.0 10.0 0.00 0.00 0.00 40 1013.6
20260905200015 99 135 3.0 7.0 0.00 0.00 0.00 41 1013.8
20260905195515 99 135 2.0 7.0 0.00 0.00 0.00 39 1013.9
20260905195015 100 135 3.0 10.0 0.00 0.00 0.00 40 1014.0
20260905194515 98 225 2.0 5.0 0.00 0.00 0.00 40 1014.0
20260905194015 99 225 3.0 10.0 0.00 0.00 0.00 41 1014.1
20260905193515 99 135 3.0 11.0 0.00 0.00 0.00 41 1014.2
20260905193015 99 135 5.0 12.0 0.00 0.00 0.00 41 1014.2
20260905192515 98 135 1.0 4.0 0.00 0.00 0.00 43 1014.3
20260905192015 97 135 2.0 4.0 0.00 0.00 0.00 42 1014.4
20260905191515 97 135 2.0 7.0 0.00 0.00 0.00 40 1014.4
20260905191035 99 90 4.0 10.0 0.00 0.00 0.00 40 1014.6
20260905190555 99 158 3.0 11.0 0.00 0.00 0.00 38 1014.6
20260905190037 99 158 3.0 10.0 0.00 0.00 0.00 39 1014.7
20260905185537 98 158 3.0 9.0 0.00 0.00 0.00 41 1014.6
20260905185037 99 68 3.0 8.0 0.00 0.00 0.00 41 1014.9
20260905184517 97 68 3.0 7.0 0.00 0.00 0.00 42 1014.9
20260905184039 97 158 4.0 8.0 0.00 0.00 0.00 41 1015.0
20260905183517 97 45 4.0 10.0 0.00 0.00 0.00 42 1015.1
20260905183017 97 158 4.0 9.0 0.00 0.00 0.00 43 1015.1
20260905182517 98 158 5.0 10.0 0.00 0.00 0.00 43 1015.1
20260905182017 98 158 4.0 9.0 0.00 0.00 0.00 42 1015.3
20260905181537 97 158 5.0 13.0 0.00 0.00 0.00 45 1015.2
20260905181017 96 135 4.0 11.0 0.00 0.00 0.00 47 1015.3
20260905180517 93 270 3.0 7.0 0.00 0.00 0.00 50 1015.5
20260905180015 93 180 2.0 10.0 0.00 0.00 0.00 50 1015.7
20260905175537 94 180 4.0 11.0 0.00 0.00 0.00 49 1015.8
20260905175018 94 225 3.0 8.0 0.00 0.00 0.00 50 1015.8
20260905174517 94 180 3.0 7.0 0.00 0.00 0.00 49 1015.9
20260905174017 94 203 4.0 10.0 0.00 0.00 0.00 54 1016.0
20260905173517 93 248 3.0 7.0 0.00 0.00 0.00 53 1015.8
20260905173017 91 248 3.0 7.0 0.00 0.00 0.00 54 1016.0
20260905172517 94 180 3.0 7.0 0.00 0.00 0.00 50 1016.1
20260905172017 95 90 5.0 9.0 0.00 0.00 0.00 49 1016.2
20260905171517 93 225 3.0 8.0 0.00 0.00 0.00 52 1016.1
20260905171017 93 180 3.0 6.0 0.00 0.00 0.00 54 1016.1
20260905170537 92 270 2.0 6.0 0.00 0.00 0.00 54 1016.2
20260905170017 94 158 3.0 9.0 0.00 0.00 0.00 53 1016.3
20260905165535 93 135 2.0 6.0 0.00 0.00 0.00 54 1016.3
20260905165016 93 203 3.0 9.0 0.00 0.00 0.00 54 1016.4
20260905164517 92 158 4.0 10.0 0.00 0.00 0.00 57 1016.5
20260905164019 92 203 3.0 8.0 0.00 0.00 0.00 54 1016.5
20260905163517 92 180 4.0 10.0 0.00 0.00 0.00 55 1016.5
20260905163016 92 248 4.0 11.0 0.00 0.00 0.00 55 1016.4
20260905162537 92 158 3.0 10.0 0.00 0.00 0.00 56 1016.6
20260905162017 92 225 3.0 8.0 0.00 0.00 0.00 58 1016.3